TimeMST,TemperatureF,Dew PointF,Humidity,Sea Level PressureIn,VisibilityMPH,Wind Direction,Wind SpeedMPH,Gust SpeedMPH,PrecipitationIn,Events,Conditions,WindDirDegrees,DateUTC
12:15 AM,42.8,19.4,39,30.00,10.0,West,9.2,18.4,N/A,,Clear,270,2014-01-26 07:15:00
12:35 AM,42.8,17.6,36,29.98,10.0,WSW,13.8,20.7,N/A,,Clear,250,2014-01-26 07:35:00
12:55 AM,41.0,17.6,39,29.97,10.0,SW,12.7,-,N/A,,Clear,220,2014-01-26 07:55:00
1:15 AM,42.8,19.4,39,29.96,10.0,WSW,6.9,-,N/A,,Clear,240,2014-01-26 08:15:00
1:35 AM,42.8,19.4,39,29.95,10.0,West,6.9,-,N/A,,Clear,270,2014-01-26 08:35:00
1:55 AM,39.2,19.4,45,29.95,10.0,NW,6.9,-,N/A,,Clear,320,2014-01-26 08:55:00
2:15 AM,39.2,19.4,45,29.94,10.0,West,6.9,-,N/A,,Clear,280,2014-01-26 09:15:00
2:35 AM,39.2,19.4,45,29.94,10.0,SSE,4.6,-,N/A,,Clear,160,2014-01-26 09:35:00
2:55 AM,41.0,19.4,42,29.93,10.0,SSW,4.6,-,N/A,,Clear,210,2014-01-26 09:55:00
3:15 AM,39.2,19.4,45,29.92,10.0,WNW,5.8,-,N/A,,Clear,300,2014-01-26 10:15:00
3:35 AM,41.0,19.4,42,29.90,10.0,West,9.2,16.1,N/A,,Clear,260,2014-01-26 10:35:00
3:55 AM,39.2,19.4,45,29.90,10.0,Calm,Calm,-,N/A,,Clear,0,2014-01-26 10:55:00
4:15 AM,39.2,19.4,45,29.89,10.0,West,5.8,-,N/A,,Clear,270,2014-01-26 11:15:00
4:35 AM,42.8,19.4,39,29.88,10.0,West,8.1,-,N/A,,Clear,280,2014-01-26 11:35:00
4:55 AM,41.0,19.4,42,29.88,10.0,West,10.4,-,N/A,,Clear,270,2014-01-26 11:55:00
5:15 AM,42.8,17.6,36,29.88,10.0,NW,3.5,-,N/A,,Clear,310,2014-01-26 12:15:00
5:35 AM,42.8,17.6,36,29.88,10.0,West,6.9,-,N/A,,Clear,280,2014-01-26 12:35:00
5:55 AM,41.0,17.6,39,29.88,10.0,West,6.9,-,N/A,,Clear,260,2014-01-26 12:55:00
6:15 AM,39.2,17.6,42,29.88,10.0,NNW,8.1,-,N/A,,Clear,330,2014-01-26 13:15:00
6:35 AM,39.2,17.6,42,29.88,10.0,NW,4.6,-,N/A,,Clear,320,2014-01-26 13:35:00
6:55 AM,39.2,15.8,39,29.89,10.0,NW,10.4,-,N/A,,Clear,310,2014-01-26 13:55:00
7:15 AM,39.2,15.8,39,29.89,10.0,NW,9.2,-,N/A,,Clear,310,2014-01-26 14:15:00
7:35 AM,37.4,15.8,41,29.90,10.0,Calm,Calm,-,N/A,,Clear,0,2014-01-26 14:35:00
7:55 AM,37.4,17.6,45,29.90,10.0,WNW,6.9,-,N/A,,Partly Cloudy,290,2014-01-26 14:55:00
8:15 AM,39.2,12.2,33,29.90,10.0,West,5.8,-,N/A,,Partly Cloudy,260,2014-01-26 15:15:00
8:35 AM,39.2,12.2,33,29.91,10.0,NNW,9.2,-,N/A,,Scattered Clouds,340,2014-01-26 15:35:00
8:55 AM,39.2,14.0,36,29.93,10.0,NNE,8.1,-,N/A,,Mostly Cloudy,20,2014-01-26 15:55:00
9:15 AM,39.2,15.8,39,29.94,10.0,North,19.6,31.1,N/A,,Overcast,360,2014-01-26 16:15:00
9:35 AM,35.6,24.8,65,29.96,10.0,North,21.9,33.4,N/A,,Overcast,10,2014-01-26 16:35:00
9:55 AM,32.0,26.6,80,29.98,10.0,North,20.7,28.8,N/A,,Mostly Cloudy,360,2014-01-26 16:55:00
10:15 AM,33.8,28.4,81,30.00,8.0,North,13.8,25.3,N/A,,Mostly Cloudy,360,2014-01-26 17:15:00
10:55 AM,32.0,28.4,87,30.03,2.5,North,13.8,21.9,N/A,,Overcast,360,2014-01-26 17:55:00
11:15 AM,30.2,28.4,93,30.03,2.5,North,18.4,25.3,N/A,,Overcast,10,2014-01-26 18:15:00
11:35 AM,30.2,28.4,93,30.03,3.0,North,16.1,25.3,N/A,,Overcast,360,2014-01-26 18:35:00
11:55 AM,30.2,28.4,93,30.03,2.5,North,17.3,27.6,N/A,,Overcast,360,2014-01-26 18:55:00
12:15 PM,30.2,28.4,93,30.04,1.5,North,25.3,34.5,N/A,,Overcast,360,2014-01-26 19:15:00
12:35 PM,28.4,26.6,93,30.05,1.2,North,24.2,34.5,N/A,,Overcast,350,2014-01-26 19:35:00
12:55 PM,26.6,24.8,93,30.07,0.8,North,27.6,41.4,N/A,,Overcast,360,2014-01-26 19:55:00
1:15 PM,26.6,24.8,93,30.09,1.0,North,26.5,35.7,N/A,,Overcast,10,2014-01-26 20:15:00
1:35 PM,24.8,21.2,86,30.11,0.8,North,18.4,27.6,N/A,,Overcast,360,2014-01-26 20:35:00
1:55 PM,24.8,21.2,86,30.12,2.5,North,23.0,31.1,N/A,,Mostly Cloudy,350,2014-01-26 20:55:00
2:15 PM,23.0,19.4,86,30.11,4.0,North,16.1,29.9,N/A,,Mostly Cloudy,360,2014-01-26 21:15:00
2:35 PM,21.2,17.6,86,30.12,10.0,North,26.5,32.2,N/A,,Overcast,360,2014-01-26 21:35:00
2:55 PM,21.2,15.8,80,30.13,10.0,North,12.7,-,N/A,,Overcast,350,2014-01-26 21:55:00
3:15 PM,21.2,12.2,68,30.14,10.0,North,16.1,20.7,N/A,,Overcast,350,2014-01-26 22:15:00
3:35 PM,21.2,10.4,63,30.14,10.0,NNW,17.3,24.2,N/A,,Overcast,330,2014-01-26 22:35:00
3:55 PM,21.2,10.4,63,30.14,10.0,NNW,12.7,20.7,N/A,,Overcast,330,2014-01-26 22:55:00
4:15 PM,21.2,8.6,58,30.14,10.0,North,12.7,-,N/A,,Overcast,360,2014-01-26 23:15:00
4:35 PM,19.4,6.8,58,30.15,10.0,North,15.0,23.0,N/A,,Overcast,350,2014-01-26 23:35:00
4:55 PM,19.4,6.8,58,30.16,10.0,North,16.1,23.0,N/A,,Overcast,360,2014-01-26 23:55:00
5:15 PM,17.6,6.8,63,30.16,10.0,North,15.0,-,N/A,,Overcast,10,2014-01-27 00:15:00
5:35 PM,17.6,5.0,58,30.17,10.0,North,10.4,-,N/A,,Overcast,10,2014-01-27 00:35:00
5:55 PM,17.6,3.2,53,30.18,10.0,North,15.0,-,N/A,,Overcast,350,2014-01-27 00:55:00
6:15 PM,15.8,1.4,53,30.18,10.0,North,11.5,-,N/A,,Overcast,360,2014-01-27 01:15:00
6:35 PM,15.8,1.4,53,30.18,10.0,North,11.5,-,N/A,,Overcast,360,2014-01-27 01:35:00
6:55 PM,15.8,1.4,53,30.18,10.0,North,11.5,-,N/A,,Overcast,360,2014-01-27 01:55:00
7:15 PM,15.8,1.4,53,30.18,10.0,North,12.7,-,N/A,,Overcast,350,2014-01-27 02:15:00
7:35 PM,15.8,1.4,53,30.19,10.0,North,13.8,-,N/A,,Overcast,360,2014-01-27 02:35:00
7:55 PM,15.8,1.4,53,30.18,10.0,North,9.2,-,N/A,,Overcast,350,2014-01-27 02:55:00
8:15 PM,14.0,1.4,57,30.18,10.0,NNE,8.1,-,N/A,,Overcast,20,2014-01-27 03:15:00
8:55 PM,14.0,1.4,57,30.17,10.0,North,6.9,-,N/A,,Overcast,360,2014-01-27 03:55:00
9:35 PM,14.0,3.2,62,30.17,10.0,North,9.2,-,N/A,,Overcast,360,2014-01-27 04:35:00
9:55 PM,14.0,3.2,62,30.16,10.0,North,4.6,-,N/A,,Overcast,10,2014-01-27 04:55:00
10:15 PM,14.0,1.4,57,30.15,10.0,NNE,5.8,-,N/A,,Overcast,30,2014-01-27 05:15:00
10:35 PM,12.2,3.2,67,30.15,10.0,NNE,9.2,-,N/A,,Overcast,30,2014-01-27 05:35:00
10:55 PM,12.2,3.2,67,30.14,10.0,NNE,3.5,-,N/A,,Overcast,20,2014-01-27 05:55:00
11:15 PM,12.2,3.2,67,30.14,10.0,NNE,5.8,-,N/A,,Overcast,30,2014-01-27 06:15:00
11:35 PM,12.2,3.2,67,30.14,10.0,NNE,6.9,-,N/A,,Overcast,30,2014-01-27 06:35:00
11:55 PM,12.2,3.2,67,30.13,10.0,NE,6.9,-,N/A,,Overcast,50,2014-01-27 06:55:00